Location: Home
(40.5300°N, 105.0300°W)
Time: 11:03:50
(UTC-07:00)

STARLINK-2712 - Pass Details

Date: 29 October 2021
Orbit: 546 x 548 km, 53.1° (Epoch: 01 December)

Event Time Altitude Azimuth Distance (km) Brightness Sun altitude
Exits shadow 05:58:27 33° 304° (NW) 923 4.3 -17.4°
Maximum altitude 05:59:13 37° 330° (NNW) 866 4.3 -17.2°
Drops below altitude 10° 06:03:04 10° 39° (NE) 1,817 6.7 -16.5°
Sets 06:05:26 0° 48° (NE) 2,713 7.8 -16.0°
